www.pogodaiklimat.ru

Погода и климат >> Архив погоды >> Россия >> Чувашия >> Алатырь


ПОГОДА в Алатыре

  • Прогноз погоды в Алатыре
  • Монитор погоды в Алатыре

АРХИВ ПОГОДЫ в Алатыре

Время (UTC), дата Ветер
(напр.,м/с)
 
Видим.   Явления Облачность Т
(С)
Тd
(С)
f
(%)
Тe
(С)
Тes
(С)
Комфортность P
(гПа)
Po
(гПа)
Тmin
(С)
Tmax
(С)
R
(мм)
R24
(мм)
S
(см)
06 15.04 СВ 3-6
{6}
50 км ясно +4.7 -11.1 31 +2 +8 1026.0 1003.6
09 15.04 СВ 3-6
{6}
50 км ясно +8.3 -13.3 20 +7 +16 опасность
простуды
1025.5 1003.4
12 15.04 С 3-5
{7}
50 км ясно +10.3 -13.3 18 +9 +15 1024.2 1002.3
15 15.04 С 4-5
{8}
50 км ясно +9.5 -15.1 16 +8 +8 1023.5 1001.5 +10.8
18 15.04 СЗ 3-3
{5}
20 км ясно +3.8 -11.9 31 +1 +1 1024.3 1001.9
21 15.04 З 2-2
{4}
20 км ясно +3.8 -13.1 28 +2 +2 1024.1 1001.7
00 16.04 СЗ 3-4
{5}
20 км ясно +0.9 -11.1 40 -3 -3 1023.7 1001.0
03 16.04 СЗ 3-4
{5}
50 км 3/3 600 м
[Sc Ac trans]
+1.1 -9.7 44 -3 -2 1022.9 1000.2 +0.3
06 16.04 СЗ 3-5
{5}
50 км 6/3 600 м
[Sc Ac trans]
+7.5 -5.7 39 +5 +8 1022.2 1000.1
09 16.04 СЗ 6-9
{12}
50 км 6/6 1000 м
[Cu med, cong]
+9.8 -5.0 35 +7 +9 1021.2 999.2
12 16.04 С 8-12
{13}
50 км 8/8 600 м
[Sc]
+10.1 -4.4 36 +7 +7 1020.9 999.0
15 16.04 С 7-10
{12}
50 км 10/10 600 м
[Sc]
+6.5 -4.1 47 +2 +2 1022.5 1000.3 +11.2
18 16.04 С 4-6
{13}
20 км 10/10 600 м
[Sc]
+4.7 -4.9 50 +1 +1 1024.8 1002.5
21 16.04 СВ 4-9
{11}
20 км 9/9 300 м
[Sc]
+2.8 -6.9 49 -1 -1 1027.2 1004.6
00 17.04 СВ 2-3
{8}
20 км ясно -1.6 -8.9 57 -5 -5 1029.4 1006.5
03 17.04 СВ 4-8
{9}
50 км ясно -3.0 -14.5 41 -8 -8 1032.5 1009.1 -3.6
06 17.04 СВ 3-7
{10}
50 км ясно +0.1 -16.1 28 -3 +3 1033.7 1010.7
09 17.04 СВ 3-6
{9}
50 км 3/0
[Ac lent]
+3.5 -19.9 16 +1 +9 опасность
простуды
1033.3 1010.7
12 17.04 С 5-8
{10}
50 км 3/0
[Ac lent]
+4.8 -19.5 15 +1 +4 1032.6 1010.1
15 17.04 СВ 3-6
{9}
50 км 8/4 600 м
[Sc Ac trans]
+4.0 -18.1 18 +2 +2 1032.0 1009.4 +5.3
18 17.04 СВ 1-2
{6}
20 км 8/6 600 м
[Sc Ac trans]
+0.1 -16.8 27 -1 -1 1033.0 1010.0
21 17.04 ЮВ 2-2
{3}
20 км 9/6 600 м
[Sc Ac trans]
-2.5 -16.8 32 -5 -5 1033.3 1010.0
00 18.04 Ю 2-2
{4}
20 км 3/3 600 м
[Sc Ac trans]
-3.8 -14.8 42 -7 -7 1033.3 1009.8
03 18.04 штиль 0
{2}
50 км 4/3 600 м
[Sc Ac trans]
-3.0 -12.7 47 -3 -3 1033.1 1009.7 -4.6
06 18.04 ЮЗ 2-3
{4}
50 км 4/3 600 м
[Sc Ac trans]
+2.2 -14.8 27 0 +5 1032.3 1009.5
09 18.04 С 1-3
{5}
50 км 4/0
[Ci fib]
+5.1 -17.4 18 +5 +18 опасность
простуды
1030.9 1008.4
12 18.04 С 1-3
{6}
50 км 3/0
[Ci fib]
+6.8 -19.4 13 +7 +15 1029.3 1007.0
15 18.04 СЗ 1-2
{4}
50 км ясно +7.1 -17.9 15 +7 +8 1028.5 1006.2 +7.8
18 18.04 В 3-4
{4}
20 км ясно +1.1 -15.9 27 -2 -2 1029.8 1007.0
21 18.04 Ю 2-2
{4}
20 км ясно -1.2 -16.7 30 -4 -4 1030.8 1007.6
00 19.04 ЮВ 1-1
{3}
20 км ясно -3.0 -14.5 41 -4 -4 1030.8 1007.7
03 19.04 В 1-2
{2}
50 км ясно -2.7 -11.2 52 -4 -3 1031.0 1007.7 -4.1
06 19.04 С 1-3
{3}
50 км ясно +6.1 -14.4 21 +6 +15 опасность
простуды
1030.4 1007.9
09 19.04 С 3-6
{7}
50 км ясно +8.9 -16.4 15 +7 +18 опасность
простуды
1028.9 1006.8
12 19.04 СЗ 2-6
{9}
50 км ясно +10.3 -15.1 15 +10 +17 1027.2 1005.2
15 19.04 С 3-5
{8}
50 км ясно +9.4 -13.9 18 +8 +9 1026.1 1004.0 +10.9
18 19.04 СЗ 2-2
{5}
20 км ясно +6.1 -11.6 27 +5 +5 1026.6 1004.2
21 19.04 СЗ 3-4
{5}
20 км 3/0
[Ac trans]
+4.1 -10.6 33 +1 +1 1026.3 1003.8
00 20.04 З 1-2
{4}
20 км ясно +0.2 -10.1 46 -1 -1 1026.1 1003.3
03 20.04 З 1-2
{4}
50 км ясно +1.3 -8.4 48 0 +1 1025.8 1003.1 -0.4
06 20.04 СЗ 2-4
{4}
50 км ясно +8.3 -7.4 32 +7 +15 1025.5 1003.4
09 20.04 СЗ 2-5
{10}
50 км 3/3 1000 м
[Cu hum]
+11.9 -9.0 22 +12 +20 1024.8 1003.0
12 20.04 С 3-6
{7}
50 км 3/3 1000 м
[Cu hum]
+12.9 -10.3 19 +12 +16 1024.4 1002.6
15 20.04 С 3-5
{6}
50 км ясно +12.5 -9.8 20 +12 +12 1024.1 1002.4 +13.8
18 20.04 СВ 2-3
{5}
20 км ясно +8.2 -8.2 30 +7 +7 1025.9 1003.8
21 20.04 В 3-3
{7}
20 км ясно +2.4 -7.6 48 -1 -1 1027.1 1004.5
00 21.04 штиль 0
{3}
20 км ясно +2.2 -7.4 49 +2 +2 1026.9 1004.3
03 21.04 СВ 1-2
{3}
50 км ясно +1.6 -6.2 56 0 +2 1027.7 1005.0 +0.7
06 21.04 С 2-3
{3}
50 км 3/0
[Ac lent]
+10.9 -7.8 26 +10 +16 1027.5 1005.5
09 21.04 С 4-8
{8}
50 км 8/6 600 м
[Cu hum Ac trans]
+14.0 -7.4 22 +13 +15 1026.8 1005.0
12 21.04 СЗ 3-5
{8}
50 км 9/8 600 м
[Sc Ac trans]
+15.7 -8.2 19 +15 +16 1025.5 1003.9
15 21.04 С 2-5
{7}
50 км 4/3 600 м
[Sc Ac trans]
+14.4 -7.1 22 +14 +15 1024.9 1003.2 +16.0
18 21.04 С 1-2
{5}
20 км 3/3 600 м
[Sc]
+9.8 -6.4 31 +10 +10 1026.2 1004.1
21 21.04 Ю 2-2
{3}
20 км 4/3 600 м
[Sc Ac trans]
+6.1 -6.8 39 +5 +5 1026.7 1004.4
00 22.04 СВ 1-1
{2}
20 км 6/3 600 м
[Sc Ac trans]
+4.2 -5.6 49 +4 +4 1027.2 1004.8
03 22.04 штиль 0
{1}
50 км 9/4 600 м
[Sc Ac trans Ci fib]
+4.0 -4.7 53 +4 +4 1027.5 1005.0 +2.7

 

Местоположение метеостанции Алатырь (Чувашия, Россия): широта 54.82 долгота 46.58 высота над уровнем моря 180 м.

В архиве по умолчанию представлена погода в Алатыре за последнюю неделю. Архивные данные за месяц целиком и за предыдущие месяцы, начиная с января 2011 года, Вы можете получить, выбрав интересующий диапазон дат из раскрывающегося списка и нажав кнопку "Ввод!".


*Определитесь, кто Вы:
робот инопланетянин человек

Внимание! Время в таблицах - всемирное. Для получения местного времени необходимо прибавить поправку, которая равна 3 ч.

Смотрите также архив погоды в соседних городах и на ближайших метеорологических станциях:

Погода в Сурском (Ульяновская область, Россия) (39 км)
Погода в Порецком (Чувашия, Россия) (43 км)
Погода в Дрожжаном (Татарстан, Россия) (64 км)
Погода в Батырево (Чувашия, Россия) (71 км)
Погода в Больших Березниках (Мордовия, Россия) (82 км)
Погода в Большом Болдино (Нижегородская область, Россия) (84 км)
Погода в Канаше (Чувашия, Россия) (96 км)
Погода в Сергаче (Нижегородская область, Россия) (105 км)
Погода в Инзе (Ульяновская область, Россия) (108 км)
Погода в Саранске (Мордовия, Россия) (115 км)

Пояснения к столбцам:

Ветер - указаны скорость ветра в м/с - средняя за 10 мин, порывы в срок и между сроками (в фигурных скобках) и направление, откуда дует ветер: С - северный, СВ - северо-восточный, В - восточный, ЮВ - юго-восточный, Ю - южный, ЮЗ - юго-западный, З - западный, СЗ - северо-западный.
Видимость - горизонтальная дальность видимости в метрах или километрах. При видимости от 1 до 10 км при отсутствии осадков обычно наблюдается дымка, при ухудшении видимости до 1 км и менее - туман. В сухую погоду видимость может ухудшаться дымом, пылью или мглою.
Явления - указаны атмосферные явления, наблюдавшиеся в срок или в последний час перед сроком; фигурными скобками обозначены явления, наблюдавшиеся между сроками (за 1-3 часа до срока); квадратными скобками обозначены град или гололедные отложения с указанием их диаметра в мм.
Облачность - указаны через наклонную черту общая и нижняя облачность в баллах и высота нижней границы облаков в метрах; квадратными скобками обозначены формы облаков: Ci - перистые, Cs - перисто-слоистые, Cc - перисто-кучевые, Ac - высококучевые, As - высокослоистые, Sc - слоисто-кучевые, Ns - слоисто-дождевые, Cu - кучевые, Cb - кучево-дождевые. Подробнее классификацию облаков см. в Атласе облаков (PDF).
T - Температура воздуха - температура, измеренная на высоте 2 м над землей.
Td - Температура точки росы - температура, при понижении до которой содержащийся в воздухе водяной пар достигнет насыщения.
f - Относительная влажность воздуха - влажноcть воздуха, измеренная на высоте 2 м над землей.
Te - Эффективная температура - температура, которую ощущает одетый по сезону человек в тени. Характеристика душности погоды. При расчете учитывается влияние влажности воздуха и скорости ветра на теплоощущения человека.
Tes - Эффективная температура на солнце - температура, которую ощущает человек, с поправкой на солнечный нагрев. Характеристика знойности погоды. Зависит от высоты солнца над горизонтом, облачности и скорости ветра. Ночью, в пасмурную погоду, а также при ветре 12 м/с и более поправка равна нулю.
P - Атмосферное давление - приведенное к уровню моря атмосферное давление.
Po - Атмосферное давление - измеренное на уровне метеостанции атмосферное давление.
Tmin - Минимальная температура - минимум температуры воздуха на высоте 2 м над землей.
Tmax - Максимальная температура - максимум температуры воздуха на высоте 2 м над землей.
R - Количество осадков - Количество выпавших осадков за период времени, мм. При наведении курсора мыши на число - период времени, за который выпало указанное количество осадков.
R24 - Количество осадков - Количество выпавших осадков за 24 часа, мм.
S - Снежный покров - Высота снежного покрова, см. При наведении курсора мыши на число - состояние снежного покрова и степень покрытия местности в баллах.